www.pogodaiklimat.ru

Погода и климат >> Архив погоды >> Россия >> Алтайский край >> Чарышское


ПОГОДА в Чарышском

  • Прогноз погоды в Чарышском
  • Монитор погоды в Чарышском

АРХИВ ПОГОДЫ в Чарышском

Время (UTC), дата Ветер
(напр.,м/с)
 
Видим.   Явления Облачность Т
(С)
Тd
(С)
f
(%)
Тe
(С)
Тes
(С)
Комфортность P
(гПа)
Po
(гПа)
Тmin
(С)
Tmax
(С)
R
(мм)
R24
(мм)
S
(см)
00 14.03 ЮВ 1 50 км ясно -7.0 -8.7 88 -9 -9 1033.1 978.0 -7.1 9
03 14.03 штиль 0 50 км ясно -2.7 -7.0 72 -4 +1 1032.9 978.7 -7.6
06 14.03 штиль 0 50 км ясно +7.4 -6.3 37 +7 +18 опасность
простуды
1029.4 977.3
09 14.03 З 1 50 км 10 баллов +12.6 -9.1 21 +13 +13 1027.1 976.0
12 14.03 ЮВ 1 50 км 6/0
[Ci fib]
+6.9 -7.1 36 +7 +7 1026.0 973.9 +12.9
15 14.03 штиль 0 50 км 4 балла -0.1 -4.9 70 -1 -1 1028.1 974.7
18 14.03 штиль 0 50 км ясно -3.9 -6.0 85 -5 -5 1027.4 973.3
21 14.03 штиль 0 50 км ясно -5.6 -7.4 87 -7 -7 1026.4 972.0
00 15.03 штиль 0 50 км ясно -6.4 -8.1 88 -7 -7 1025.3 970.7 -6.5 8
03 15.03 штиль 0 50 км ясно -0.6 -6.8 63 -1 +3 1024.0 970.7 -6.9
06 15.03 штиль 0 50 км ясно +11.0 -6.4 29 +11 +22 опасность
простуды
1018.9 968.0
09 15.03 З 2 50 км ясно +15.7 -10.9 15 +16 +21 1016.7 966.7
12 15.03 З 1 50 км ясно +11.4 -9.3 22 +12 +12 1016.3 965.5 +15.8
15 15.03 штиль 0 50 км ясно +1.5 -5.2 61 +1 +1 1019.3 966.7
18 15.03 ЮВ 1 50 км 1/0
[Cs]
-0.8 -5.8 69 -3 -3 1019.8 966.7
21 15.03 Ю 1 50 км 6 баллов +8.3 -10.6 25 +8 +8 1016.6 965.3
00 16.03 ЮВ 2 50 км 10/0
[Ac und]
+9.3 -10.1 24 +9 +9 1014.4 963.4 -1.0 2
03 16.03 СЗ 4 20 км слаб. ливневой дождь 10 баллов +4.5 -3.0 58 +1 +1 1017.3 965.3
06 16.03 С 3 2000 м слаб. ливневой снег 10/10 600 м
[Cb cap]
+0.5 -0.8 91 -4 -4 1020.9 968.0
09 16.03 СЗ 2 4000 м слаб. ливневой снег 10 баллов -0.6 -2.2 89 -4 -4 1022.5 969.3
12 16.03 штиль 0 50 км {ливн. осадки} 8/8 1000 м
[Cb cap]
+0.7 -3.6 73 -0 -0 1021.9 968.8 +9.8 3
15 16.03 штиль 0 50 км 7 баллов -5.7 -8.4 81 -7 -7 1025.0 970.7
18 16.03 штиль 0 50 км 6 баллов -6.5 -8.7 84 -7 -7 1025.2 970.7
21 16.03 штиль 0 50 км 10 баллов -5.4 -7.8 83 -6 -6 1025.0 970.7
00 17.03 СЗ 2 50 км 9/9 1000 м
[Cb cap]
-5.2 -7.5 84 -9 -9 1023.8 969.5 -7.3 2
03 17.03 СЗ 2 50 км ясно -4.9 -9.0 73 -9 -6 1024.9 970.7
06 17.03 СЗ 4 50 км 2 балла -1.0 -8.9 55 -6 -2 1024.1 970.7
09 17.03 СЗ 5 50 км 10 баллов -3.0 -10.5 56 -9 -9 1025.9 972.0
12 17.03 З 2 50 км 8/0
[Ac trans]
-3.9 -10.9 58 -8 -8 1026.1 972.0 -0.8
15 17.03 СЗ 2 10 км слаб. снег 10 баллов -5.6 -7.4 87 -10 -10 1027.8 973.3
18 17.03 СЗ 4 50 км 9 баллов -7.3 -10.6 77 -14 -14 1029.6 974.7
21 17.03 СЗ 1 50 км 10 баллов -9.6 -12.2 81 -12 -12 1031.5 976.0
00 18.03 ЮВ 1 50 км 4/0
[Ci fib]
-12.5 -14.6 84 -15 -15 1032.5 976.4 -12.5 1 3
03 18.03 Ю 1 50 км ясно -10.5 -15.1 69 -13 -9 1034.5 978.7 -14.4
06 18.03 штиль 0 50 км 1 балл -2.4 -11.1 51 -3 +8 1032.8 978.7
09 18.03 ЮВ 2 50 км 2 балла -1.6 -12.0 45 -5 -0 1032.7 978.7
12 18.03 СЗ 3 50 км ясно -3.4 -11.6 53 -8 -8 1031.9 977.6 -1.1
15 18.03 ЮВ 1 50 км ясно -7.7 -12.0 71 -10 -10 1035.3 980.0
18 18.03 ЮВ 1 50 км ясно -11.3 -14.1 80 -14 -14 1034.7 978.7
21 18.03 штиль 0 50 км ясно -12.6 -14.9 83 -13 -13 1035.0 978.7
00 19.03 штиль 0 50 км ясно -13.7 -15.9 83 -14 -14 1033.2 976.6 -13.9 2
03 19.03 штиль 0 50 км ясно -9.2 -13.8 69 -10 -5 1032.8 977.3 -14.2
06 19.03 СЗ 1 50 км 6 баллов 0.0 -12.0 40 -1 +3 1029.5 976.0
09 19.03 СЗ 3 50 км 10 баллов +1.6 -11.9 36 -2 -2 1029.2 976.0
12 19.03 С 1 50 км 10/0
[Ac und]
-0.7 -10.8 46 -2 -2 1029.4 975.8 +1.8
15 19.03 штиль 0 50 км 7 баллов -6.0 -11.1 67 -7 -7 1033.6 978.7
18 19.03 СЗ 1 50 км 2 балла -7.2 -11.0 74 -9 -9 1035.2 980.0
21 19.03 штиль 0 50 км ясно -10.5 -13.6 78 -11 -11 1035.9 980.0
00 20.03 штиль 0 50 км ясно -11.9 -14.2 83 -12 -12 1035.9 979.6 -11.9 <0.5
03 20.03 СЗ 1 50 км ясно -8.6 -12.4 74 -11 -7 1036.9 981.3 -12.6
06 20.03 З 2 50 км ясно +1.0 -10.2 43 -2 +7 1032.1 978.7
09 20.03 СЗ 2 50 км ясно +2.2 -11.0 37 0 +6 1031.9 978.7
12 20.03 ЮВ 1 50 км ясно +1.4 -9.4 44 0 +1 1030.2 977.2 +2.8
15 20.03 штиль 0 50 км ясно -5.2 -10.2 68 -6 -6 1033.4 978.7
18 20.03 ЮВ 1 50 км ясно -8.1 -11.1 79 -10 -10 1034.0 978.7

 

Местоположение метеостанции Чарышское (Алтайский край, Россия): широта 51.38 долгота 83.58 высота над уровнем моря 429 м.

В архиве по умолчанию представлена погода в Чарышском за последнюю неделю. Архивные данные за месяц целиком и за предыдущие месяцы, начиная с января 2011 года, Вы можете получить, выбрав интересующий диапазон дат из раскрывающегося списка и нажав кнопку "Ввод!".


*Определитесь, кто Вы:
робот инопланетянин человек

Внимание! Время в таблицах - всемирное. Для получения местного времени необходимо прибавить поправку, которая равна 7 ч.

Смотрите также архив погоды в соседних городах и на ближайших метеорологических станциях:

Погода в Солонешном (Алтайский край, Россия) (59 км)
Погода в Краснощеково (Алтайский край, Россия) (67 км)
Погода в Семинском перевале (Алтай, Россия) (81 км)
Погода в Усть-Калманке (Алтайский край, Россия) (83 км)
Погода в Усть-Кане (Алтай, Россия) (96 км)
Погода в Змеиногорске (Алтайский край, Россия) (101 км)
Погода в Усть-Чарышской Пристани (Алтайский край, Россия) (114 км)
Погода в Белокурихе (Алтайский край, Россия) (117 км)
Погода в Риддере (Восточно-Казахстанская область, Казахстан) (117 км)
Погода в Шипуново (Алтайский край, Россия) (125 км)

Пояснения к столбцам:

Ветер - указаны скорость ветра в м/с - средняя за 10 мин, порывы в срок и между сроками (в фигурных скобках) и направление, откуда дует ветер: С - северный, СВ - северо-восточный, В - восточный, ЮВ - юго-восточный, Ю - южный, ЮЗ - юго-западный, З - западный, СЗ - северо-западный.
Видимость - горизонтальная дальность видимости в метрах или километрах. При видимости от 1 до 10 км при отсутствии осадков обычно наблюдается дымка, при ухудшении видимости до 1 км и менее - туман. В сухую погоду видимость может ухудшаться дымом, пылью или мглою.
Явления - указаны атмосферные явления, наблюдавшиеся в срок или в последний час перед сроком; фигурными скобками обозначены явления, наблюдавшиеся между сроками (за 1-3 часа до срока); квадратными скобками обозначены град или гололедные отложения с указанием их диаметра в мм.
Облачность - указаны через наклонную черту общая и нижняя облачность в баллах и высота нижней границы облаков в метрах; квадратными скобками обозначены формы облаков: Ci - перистые, Cs - перисто-слоистые, Cc - перисто-кучевые, Ac - высококучевые, As - высокослоистые, Sc - слоисто-кучевые, Ns - слоисто-дождевые, Cu - кучевые, Cb - кучево-дождевые. Подробнее классификацию облаков см. в Атласе облаков (PDF).
T - Температура воздуха - температура, измеренная на высоте 2 м над землей.
Td - Температура точки росы - температура, при понижении до которой содержащийся в воздухе водяной пар достигнет насыщения.
f - Относительная влажность воздуха - влажноcть воздуха, измеренная на высоте 2 м над землей.
Te - Эффективная температура - температура, которую ощущает одетый по сезону человек в тени. Характеристика душности погоды. При расчете учитывается влияние влажности воздуха и скорости ветра на теплоощущения человека.
Tes - Эффективная температура на солнце - температура, которую ощущает человек, с поправкой на солнечный нагрев. Характеристика знойности погоды. Зависит от высоты солнца над горизонтом, облачности и скорости ветра. Ночью, в пасмурную погоду, а также при ветре 12 м/с и более поправка равна нулю.
P - Атмосферное давление - приведенное к уровню моря атмосферное давление.
Po - Атмосферное давление - измеренное на уровне метеостанции атмосферное давление.
Tmin - Минимальная температура - минимум температуры воздуха на высоте 2 м над землей.
Tmax - Максимальная температура - максимум температуры воздуха на высоте 2 м над землей.
R - Количество осадков - Количество выпавших осадков за период времени, мм. При наведении курсора мыши на число - период времени, за который выпало указанное количество осадков.
R24 - Количество осадков - Количество выпавших осадков за 24 часа, мм.
S - Снежный покров - Высота снежного покрова, см. При наведении курсора мыши на число - состояние снежного покрова и степень покрытия местности в баллах.